Time,TemperatureF,DewpointF,PressureIn,WindDirection,WindDirectionDegrees,WindSpeedMPH,WindSpeedGustMPH,Humidity,HourlyPrecipIn,Conditions,Clouds,dailyrainin,SoftwareType,DateUTC
2013-01-29 00:11:00,7.0,-99.9,-100.00,North,-999,-999.0,-999.0,-999,0.00,,,-99.99,,2013-01-29 07:11:00,
2013-01-29 00:22:00,7.0,-99.9,-100.00,North,-999,-999.0,-999.0,-999,0.00,,,-99.99,,2013-01-29 07:22:00,
2013-01-29 00:32:00,7.0,-99.9,-100.00,North,-999,-999.0,-999.0,-999,0.00,,,-99.99,,2013-01-29 07:32:00,
2013-01-29 00:42:00,7.0,-99.9,-100.00,North,-999,-999.0,-999.0,-999,0.00,,,-99.99,,2013-01-29 07:42:00,
2013-01-29 01:11:00,8.0,-99.9,-100.00,North,-999,-999.0,-999.0,-999,0.01,,,0.00,,2013-01-29 08:11:00,
2013-01-29 01:22:00,8.0,-99.9,-100.00,North,-999,-999.0,-999.0,-999,0.01,,,0.00,,2013-01-29 08:22:00,
2013-01-29 01:32:00,8.0,-99.9,-100.00,North,-999,-999.0,-999.0,-999,0.01,,,0.00,,2013-01-29 08:32:00,
2013-01-29 01:42:00,8.0,-99.9,-100.00,North,-999,-999.0,-999.0,-999,0.01,,,0.00,,2013-01-29 08:42:00,
2013-01-29 02:11:00,9.0,-99.9,-100.00,North,-999,-999.0,-999.0,-999,0.01,,,0.01,,2013-01-29 09:11:00,
2013-01-29 02:22:00,9.0,-99.9,-100.00,North,-999,-999.0,-999.0,-999,0.01,,,0.01,,2013-01-29 09:22:00,
2013-01-29 02:32:00,9.0,-99.9,-100.00,North,-999,-999.0,-999.0,-999,0.01,,,0.01,,2013-01-29 09:32:00,
2013-01-29 02:42:00,9.0,-99.9,-100.00,North,-999,-999.0,-999.0,-999,0.01,,,0.01,,2013-01-29 09:42:00,
2013-01-29 03:11:00,9.0,-99.9,-100.00,North,-999,-999.0,-999.0,-999,0.00,,,0.01,,2013-01-29 10:11:00,
2013-01-29 03:22:00,9.0,-99.9,-100.00,North,-999,-999.0,-999.0,-999,0.00,,,0.01,,2013-01-29 10:22:00,
2013-01-29 03:32:00,9.0,-99.9,-100.00,North,-999,-999.0,-999.0,-999,0.00,,,0.01,,2013-01-29 10:32:00,
2013-01-29 03:42:00,9.0,-99.9,-100.00,North,-999,-999.0,-999.0,-999,0.00,,,0.01,,2013-01-29 10:42:00,
2013-01-29 04:12:00,10.0,-99.9,-100.00,North,-999,-999.0,-999.0,-999,0.01,,,0.02,,2013-01-29 11:12:00,
2013-01-29 04:22:00,10.0,-99.9,-100.00,North,-999,-999.0,-999.0,-999,0.01,,,0.02,,2013-01-29 11:22:00,
2013-01-29 04:32:00,10.0,-99.9,-100.00,North,-999,-999.0,-999.0,-999,0.01,,,0.02,,2013-01-29 11:32:00,
2013-01-29 04:42:00,10.0,-99.9,-100.00,North,-999,-999.0,-999.0,-999,0.01,,,0.02,,2013-01-29 11:42:00,
2013-01-29 05:12:00,10.0,-99.9,-100.00,North,-999,-999.0,-999.0,-999,0.01,,,0.03,,2013-01-29 12:12:00,
2013-01-29 05:22:00,10.0,-99.9,-100.00,North,-999,-999.0,-999.0,-999,0.01,,,0.03,,2013-01-29 12:22:00,
2013-01-29 05:33:00,10.0,-99.9,-100.00,North,-999,-999.0,-999.0,-999,0.01,,,0.03,,2013-01-29 12:33:00,
2013-01-29 05:43:00,10.0,-99.9,-100.00,North,-999,-999.0,-999.0,-999,0.01,,,0.03,,2013-01-29 12:43:00,
2013-01-29 06:12:00,10.0,-99.9,-100.00,North,-999,-999.0,-999.0,-999,0.00,,,0.04,,2013-01-29 13:12:00,
2013-01-29 06:23:00,10.0,-99.9,-100.00,North,-999,-999.0,-999.0,-999,0.00,,,0.04,,2013-01-29 13:23:00,
2013-01-29 06:32:00,10.0,-99.9,-100.00,North,-999,-999.0,-999.0,-999,0.00,,,0.04,,2013-01-29 13:32:00,
2013-01-29 06:43:00,10.0,-99.9,-100.00,North,-999,-999.0,-999.0,-999,0.00,,,0.04,,2013-01-29 13:43:00,
2013-01-29 07:13:00,9.0,-99.9,-100.00,North,-999,-999.0,-999.0,-999,0.00,,,0.03,,2013-01-29 14:13:00,
2013-01-29 07:22:00,9.0,-99.9,-100.00,North,-999,-999.0,-999.0,-999,0.00,,,0.03,,2013-01-29 14:22:00,
2013-01-29 07:33:00,9.0,-99.9,-100.00,North,-999,-999.0,-999.0,-999,0.00,,,0.03,,2013-01-29 14:33:00,
2013-01-29 07:43:00,9.0,-99.9,-100.00,North,-999,-999.0,-999.0,-999,0.00,,,0.03,,2013-01-29 14:43:00,
2013-01-29 08:22:00,10.0,-99.9,-100.00,North,-999,-999.0,-999.0,-999,0.01,,,0.05,,2013-01-29 15:22:00,
2013-01-29 08:33:00,10.0,-99.9,-100.00,North,-999,-999.0,-999.0,-999,0.01,,,0.05,,2013-01-29 15:33:00,
2013-01-29 08:43:00,10.0,-99.9,-100.00,North,-999,-999.0,-999.0,-999,0.01,,,0.05,,2013-01-29 15:43:00,
2013-01-29 09:13:00,11.0,-99.9,-100.00,North,-999,-999.0,-999.0,-999,0.00,,,0.05,,2013-01-29 16:13:00,
2013-01-29 09:23:00,11.0,-99.9,-100.00,North,-999,-999.0,-999.0,-999,0.00,,,0.05,,2013-01-29 16:23:00,
2013-01-29 09:33:00,11.0,-99.9,-100.00,North,-999,-999.0,-999.0,-999,0.00,,,0.05,,2013-01-29 16:33:00,
2013-01-29 09:43:00,11.0,-99.9,-100.00,North,-999,-999.0,-999.0,-999,0.00,,,0.05,,2013-01-29 16:43:00,
2013-01-29 10:13:00,14.0,-99.9,-100.00,North,-999,-999.0,-999.0,-999,0.00,,,0.05,,2013-01-29 17:13:00,
2013-01-29 10:23:00,14.0,-99.9,-100.00,North,-999,-999.0,-999.0,-999,0.00,,,0.05,,2013-01-29 17:23:00,
2013-01-29 10:33:00,14.0,-99.9,-100.00,North,-999,-999.0,-999.0,-999,0.00,,,0.05,,2013-01-29 17:33:00,
2013-01-29 10:43:00,14.0,-99.9,-100.00,North,-999,-999.0,-999.0,-999,0.00,,,0.05,,2013-01-29 17:43:00,
2013-01-29 12:12:00,21.0,-99.9,-100.00,North,-999,-999.0,-999.0,-999,-99.99,,,0.06,,2013-01-29 19:12:00,
2013-01-29 12:33:00,21.0,-99.9,-100.00,North,-999,-999.0,-999.0,-999,-99.99,,,0.06,,2013-01-29 19:33:00,
2013-01-29 12:42:00,21.0,-99.9,-100.00,North,-999,-999.0,-999.0,-999,-99.99,,,0.06,,2013-01-29 19:42:00,
2013-01-29 13:13:00,25.0,-99.9,-100.00,North,-999,-999.0,-999.0,-999,0.00,,,0.05,,2013-01-29 20:13:00,
2013-01-29 13:23:00,25.0,-99.9,-100.00,North,-999,-999.0,-999.0,-999,0.00,,,0.05,,2013-01-29 20:23:00,
2013-01-29 13:34:00,25.0,-99.9,-100.00,North,-999,-999.0,-999.0,-999,0.00,,,0.05,,2013-01-29 20:34:00,
2013-01-29 13:43:00,25.0,-99.9,-100.00,North,-999,-999.0,-999.0,-999,0.00,,,0.05,,2013-01-29 20:43:00,
2013-01-29 14:13:00,25.0,-99.9,-100.00,North,-999,-999.0,-999.0,-999,0.01,,,0.06,,2013-01-29 21:13:00,
2013-01-29 14:23:00,25.0,-99.9,-100.00,North,-999,-999.0,-999.0,-999,0.01,,,0.06,,2013-01-29 21:23:00,
2013-01-29 14:34:00,25.0,-99.9,-100.00,North,-999,-999.0,-999.0,-999,0.01,,,0.06,,2013-01-29 21:34:00,
2013-01-29 14:43:00,25.0,-99.9,-100.00,North,-999,-999.0,-999.0,-999,0.01,,,0.06,,2013-01-29 21:43:00,
2013-01-29 15:13:00,24.0,-99.9,-100.00,North,-999,-999.0,-999.0,-999,-99.99,,,0.06,,2013-01-29 22:13:00,
2013-01-29 15:22:00,24.0,-99.9,-100.00,North,-999,-999.0,-999.0,-999,-99.99,,,0.06,,2013-01-29 22:22:00,
2013-01-29 15:33:00,24.0,-99.9,-100.00,North,-999,-999.0,-999.0,-999,-99.99,,,0.06,,2013-01-29 22:33:00,
2013-01-29 15:43:00,24.0,-99.9,-100.00,North,-999,-999.0,-999.0,-999,-99.99,,,0.06,,2013-01-29 22:43:00,
2013-01-29 16:12:00,21.0,-99.9,-100.00,North,-999,-999.0,-999.0,-999,-99.99,,,-99.99,,2013-01-29 23:12:00,
2013-01-29 16:23:00,21.0,-99.9,-100.00,North,-999,-999.0,-999.0,-999,-99.99,,,-99.99,,2013-01-29 23:23:00,
2013-01-29 16:33:00,21.0,-99.9,-100.00,North,-999,-999.0,-999.0,-999,-99.99,,,-99.99,,2013-01-29 23:33:00,
2013-01-29 16:43:00,21.0,-99.9,-100.00,North,-999,-999.0,-999.0,-999,-99.99,,,-99.99,,2013-01-29 23:43:00,
2013-01-29 17:12:00,18.0,-99.9,-100.00,North,-999,-999.0,-999.0,-999,0.00,,,-99.99,,2013-01-30 00:12:00,
2013-01-29 17:22:00,18.0,-99.9,-100.00,North,-999,-999.0,-999.0,-999,0.00,,,-99.99,,2013-01-30 00:22:00,
2013-01-29 17:33:00,18.0,-99.9,-100.00,North,-999,-999.0,-999.0,-999,0.00,,,-99.99,,2013-01-30 00:33:00,
2013-01-29 17:43:00,18.0,-99.9,-100.00,North,-999,-999.0,-999.0,-999,0.00,,,-99.99,,2013-01-30 00:43:00,
2013-01-29 18:12:00,15.0,-99.9,-100.00,North,-999,-999.0,-999.0,-999,-99.99,,,-99.99,,2013-01-30 01:12:00,
2013-01-29 18:23:00,15.0,-99.9,-100.00,North,-999,-999.0,-999.0,-999,-99.99,,,-99.99,,2013-01-30 01:23:00,
2013-01-29 18:32:00,15.0,-99.9,-100.00,North,-999,-999.0,-999.0,-999,-99.99,,,-99.99,,2013-01-30 01:32:00,
2013-01-29 18:43:00,15.0,-99.9,-100.00,North,-999,-999.0,-999.0,-999,-99.99,,,-99.99,,2013-01-30 01:43:00,
2013-01-29 19:13:00,13.0,-99.9,-100.00,North,-999,-999.0,-999.0,-999,-99.99,,,-99.99,,2013-01-30 02:13:00,
2013-01-29 19:22:00,13.0,-99.9,-100.00,North,-999,-999.0,-999.0,-999,-99.99,,,-99.99,,2013-01-30 02:22:00,
2013-01-29 19:33:00,13.0,-99.9,-100.00,North,-999,-999.0,-999.0,-999,-99.99,,,-99.99,,2013-01-30 02:33:00,
2013-01-29 19:42:00,13.0,-99.9,-100.00,North,-999,-999.0,-999.0,-999,-99.99,,,-99.99,,2013-01-30 02:42:00,
2013-01-29 20:12:00,13.0,-99.9,-100.00,North,-999,-999.0,-999.0,-999,0.00,,,-99.99,,2013-01-30 03:12:00,
2013-01-29 20:23:00,13.0,-99.9,-100.00,North,-999,-999.0,-999.0,-999,0.00,,,-99.99,,2013-01-30 03:23:00,
2013-01-29 20:33:00,13.0,-99.9,-100.00,North,-999,-999.0,-999.0,-999,0.00,,,-99.99,,2013-01-30 03:33:00,
2013-01-29 20:42:00,13.0,-99.9,-100.00,North,-999,-999.0,-999.0,-999,0.00,,,-99.99,,2013-01-30 03:42:00,
2013-01-29 21:12:00,11.0,-99.9,-100.00,North,-999,-999.0,-999.0,-999,0.00,,,-99.99,,2013-01-30 04:12:00,
2013-01-29 21:22:00,11.0,-99.9,-100.00,North,-999,-999.0,-999.0,-999,0.00,,,-99.99,,2013-01-30 04:22:00,
2013-01-29 21:32:00,11.0,-99.9,-100.00,North,-999,-999.0,-999.0,-999,0.00,,,-99.99,,2013-01-30 04:32:00,
2013-01-29 21:42:00,11.0,-99.9,-100.00,North,-999,-999.0,-999.0,-999,0.00,,,-99.99,,2013-01-30 04:42:00,
2013-01-29 22:12:00,11.0,-99.9,-100.00,North,-999,-999.0,-999.0,-999,0.01,,,-99.99,,2013-01-30 05:12:00,
2013-01-29 22:22:00,11.0,-99.9,-100.00,North,-999,-999.0,-999.0,-999,0.01,,,-99.99,,2013-01-30 05:22:00,
2013-01-29 22:33:00,11.0,-99.9,-100.00,North,-999,-999.0,-999.0,-999,0.01,,,-99.99,,2013-01-30 05:33:00,
2013-01-29 22:43:00,11.0,-99.9,-100.00,North,-999,-999.0,-999.0,-999,0.01,,,-99.99,,2013-01-30 05:43:00,
2013-01-29 23:22:00,11.0,-99.9,-100.00,North,-999,-999.0,-999.0,-999,0.00,,,-99.99,,2013-01-30 06:22:00,
2013-01-29 23:32:00,11.0,-99.9,-100.00,North,-999,-999.0,-999.0,-999,0.00,,,-99.99,,2013-01-30 06:32:00,
2013-01-29 23:42:00,11.0,-99.9,-100.00,North,-999,-999.0,-999.0,-999,0.00,,,-99.99,,2013-01-30 06:42:00,